This is the latest recevied weather packets stored in our database for station/object WX6HNX-5. If no packets are shown the sender has not sent any weather packets the latest 10 day(s).
| Time | Temp. | Humidity | Pressure | Rain* | Wind** | Luminosity | Snow |
|---|---|---|---|---|---|---|---|
| 1778112301 | 27.22° C | 40% | 1015.2 hPa | 0 mm | - | - | - |
| 1778112001 | 26.67° C | 41% | 1015.3 hPa | 0 mm | - | - | - |
| 1778111701 | 26.67° C | 41% | 1015.2 hPa | 0 mm | - | - | - |
| 1778111401 | 26.11° C | 42% | 1015.3 hPa | 0 mm | - | - | - |
| 1778111102 | 26.11° C | 41% | 1015.3 hPa | 0 mm | - | - | - |
| 1778110801 | 26.67° C | 42% | 1015.4 hPa | 0 mm | - | - | - |
| 1778110501 | 26.11° C | 42% | 1015.4 hPa | 0 mm | - | - | - |
| 1778110202 | 25.56° C | 43% | 1015.4 hPa | 0 mm | - | - | - |
| 1778109901 | 25.56° C | 43% | 1015.5 hPa | 0 mm | - | - | - |
| 1778109601 | 26.11° C | 42% | 1015.5 hPa | 0 mm | - | - | - |
| 1778109301 | 25.56° C | 42% | 1015.4 hPa | 0 mm | - | - | - |
| 1778109001 | 25.56° C | 43% | 1015.5 hPa | 0 mm | - | - | - |
| 1778108701 | 26.11° C | 41% | 1015.5 hPa | 0 mm | - | - | - |
| 1778108401 | 26.11° C | 42% | 1015.7 hPa | 0 mm | - | - | - |
| 1778108102 | 25.56° C | 42% | 1015.8 hPa | 0 mm | - | - | - |
| 1778107803 | 26.11° C | 42% | 1015.8 hPa | 0 mm | - | - | - |
| 1778107501 | 26.11° C | 41% | 1015.9 hPa | 0 mm | - | - | - |
| 1778107201 | 26.11° C | 41% | 1015.9 hPa | 0 mm | - | - | - |
| 1778106901 | 26.11° C | 41% | 1016 hPa | 0 mm | - | - | - |
| 1778106402 | 26.11° C | 41% | 1016.1 hPa | 0 mm | - | - | - |
| 1778106102 | 25.56° C | 42% | 1016.2 hPa | 0 mm | - | - | - |
| 1778105802 | 25.56° C | 42% | 1016.4 hPa | 0 mm | - | - | - |
| 1778105504 | 25.56° C | 42% | 1016.4 hPa | 0 mm | - | - | - |
| 1778105203 | 25.56° C | 43% | 1016.4 hPa | 0 mm | - | - | - |
| 1778104904 | 25.56° C | 43% | 1016.4 hPa | 0 mm | - | - | - |
* Rain latest hour (hover to see other rain measurements)
** Current wind speed in m/s (hover to see current wind gust speed)